Hourly Data Report for October 21, 2016

All times are specified in Local Standard Time (LST). Add 1 hour to adjust for Daylight Saving Time where and when it is observed.

GJOA HAVEN A
NUNAVUT

68°38'08.000" N
95°51'01.000" W
46.90 m
2302337
71597
YHK

Download Data

Hourly Data (October 2016)
Hourly Data Report for October 21, 2016
Temp Definition
°C
Dew Point Temp Definition
°C
Rel Hum Definition
%
Wind Dir Definition
10's deg

Wind Spd Definition
km/h
Visibility Definition
km
Stn Press Definition
kPa
Hmdx Definition


Wind Chill Definition


Weather Definition


TIME
00:00 Legend Double Dagger -13.8 -15.5 87 34 15 16.1 101.27   -21 LegendNANA
01:00 Legend Double Dagger -14.3 -16.0 87 35 18 16.1 101.29   -23 LegendNANA
02:00 Legend Double Dagger -14.6 -15.9 90 35 17 16.1 101.32   -23 LegendNANA
03:00 Legend Double Dagger -16.1 -17.1 92 35 21 16.1 101.36   -26 LegendNANA
04:00 Legend Double Dagger -16.7 -17.7 92 1 17 16.1 101.39   -26 LegendNANA
05:00 Legend Double Dagger -16.7 -18.0 90 1 13 16.1 101.38   -24 LegendNANA
06:00 Legend Double Dagger -15.7 -16.9 91 3 13 16.1 101.42   -23 LegendNANA
07:00 Legend Double Dagger -13.5 -14.6 92 3 13 16.1 101.45   -20 LegendNANA
08:00 Legend Double Dagger -14.5 -15.9 89 3 9 0.6 101.46   -20 Moderate Snow
09:00 Legend Double Dagger -10.9 -11.7 94 5 4 16.1 101.49   -13 LegendNANA
10:00 Legend Double Dagger -11.7 -12.6 93 3 9 1.6 101.52   -17 Fog
11:00 Legend Double Dagger -11.7 -12.8 92 2 8 16.1 101.56   -16 LegendNANA
12:00 Legend Double Dagger -11.5 -12.6 92 36 11 16.1 101.56   -17 LegendNANA
13:00 Legend Double Dagger -11.6 -12.5 93 36 13 16.1 101.59   -18 LegendNANA
14:00 Legend Double Dagger -10.5 -11.3 94 4 8 16.1 101.62   -15 Snow
15:00 Legend Double Dagger -9.4 -10.2 94 2 13 16.1 101.66   -15 Snow
16:00 Legend Double Dagger -8.9 -9.7 94 1 11 16.1 101.70   -14 Snow
17:00 Legend Double Dagger -7.9 -9.9 86 12 11 16.1 101.73   -13 Snow
18:00 Legend Double Dagger -8.0 -9.9 87 15 15 16.1 101.74   -14 Snow
19:00 Legend Double Dagger -8.6 -10.9 84 11 11 16.1 101.78   -14 Snow
20:00 Legend Double Dagger -9.1 -11.0 86 13 21 16.1 101.81   -17 Snow
21:00 Legend Double Dagger -9.5 -11.2 88 13 17 16.1 101.84   -17 LegendNANA
22:00 Legend Double Dagger -9.8 -11.4 88 14 18 16.1 101.87   -17 LegendNANA
23:00 Legend Double Dagger -10.5 -11.7 91 12 18 16.1 101.91   -18 LegendNANA

Notes on Data Quality.

Legend

  • E = Estimated
  • M = Missing
  • NA = Not Available
  • ‡ = Partner data that is not subject to review by the National Climate Archives
Date modified: